Flag for U.S.A. Weather past 2 weeks in Lakeland, Florida, U.S.A.

Now
64 °F

Clear.


Feels Like: 64 °F
Forecast: 68 / 85 °F
Wind: No wind

Location: Lakeland Regional

Current Time: Apr 21, 2015 at 2:53:01 AM

Latest Report: Apr 21, 2015 at 2:15 AM


Visibility: 10 mi

Pressure: 29.94 "Hg

Humidity: 100%

Dew point: 64 °F

Location of LakelandLocation

Historic Weather in Lakeland — Graph

°F

Lakeland temperature yesterday

Maximum temperature yesterday: 86 °F (at 1:50 PM)
Minimum temperature yesterday: 66 °F (at 6:50 AM)
Average temperature yesterday: 71 °F

Past Weeks' High & Low Weather Summary

 TemperatureHumidityPressure
High90 °F (Apr 18, 3:50 PM)100% (Apr 7, 6:50 AM)30.20 "Hg (Apr 7, 6:50 AM)
Low64 °F (Apr 9, 4:15 AM)43% (Apr 8, 3:58 PM)29.86 "Hg (Apr 20, 4:50 PM)
Average74 °F82%30.08 "Hg
* Reported Apr 6 1:15 AM — Apr 21 1:15 AM, Lakeland, Weather by CustomWeather, © 2015

Note: Actual official high and low records may vary slightly from our data, if they occured in-between our weather recording intervals... More about our weather records

Advertising

Lakeland weather history for previous 24 hours

 ConditionsComfort  
Time TempWeatherWind HumidityBarometerVisibility
1:15 AM
Tue, Apr 21
66 °FClear.No wind94%29.95 "Hg10 mi
12:55 AM66 °FClear.No wind94%29.95 "Hg10 mi
12:15 AM66 °FClear.No wind94%29.96 "Hg10 mi
11:55 PM
Mon, Apr 20
66 °FClear.3 mph94%29.96 "Hg10 mi
11:15 PM66 °FClear.5 mph94%29.95 "Hg10 mi
10:55 PM66 °FPassing clouds.6 mph94%29.95 "Hg10 mi
10:35 PM66 °FPassing clouds.No wind94%29.96 "Hg10 mi
10:15 PM66 °FPassing clouds.6 mph94%29.94 "Hg10 mi
9:50 PM66 °FLow clouds.No wind94%29.93 "Hg12 mi
8:51 PM66 °FPartly sunny.6 mph94%29.90 "Hg12 mi
7:50 PM66 °FPartly sunny.5 mph94%29.91 "Hg10 mi
6:50 PM66 °FBroken clouds.5 mph94%29.92 "Hg10 mi
5:50 PM66 °FMostly cloudy.9 mph100%29.92 "Hg10 mi
4:50 PM82 °FPartly sunny.12 mph70%29.86 "Hg10 mi
3:45 PM79 °FBroken clouds.3 mph79%29.87 "Hg10 mi
2:50 PM72 °FThunderstorms. More clouds than sun.7 mph94%29.89 "Hg10 mi
1:50 PM86 °FScattered clouds.12 mph59%29.90 "Hg10 mi
12:50 PM84 °FScattered clouds.13 mph66%29.93 "Hg10 mi
11:50 AM84 °FScattered clouds.8 mph66%29.94 "Hg10 mi
10:50 AM81 °FScattered clouds.12 mph70%29.94 "Hg10 mi
9:50 AM77 °FPartly sunny.6 mph69%29.93 "Hg10 mi
8:50 AM73 °FPartly sunny.No wind83%29.91 "Hg10 mi
7:50 AM70 °FPassing clouds.No wind88%29.92 "Hg10 mi
6:50 AM66 °FClear.No wind94%29.91 "Hg10 mi
5:50 AM70 °FClear.No wind88%29.90 "Hg10 mi
5:35 AM68 °FClear.No wind88%29.89 "Hg10 mi
5:15 AM68 °FClear.3 mph88%29.89 "Hg10 mi
4:55 AM70 °FClear.3 mph88%29.89 "Hg10 mi
4:35 AM70 °FPassing clouds.No wind88%29.89 "Hg10 mi
4:15 AM70 °FPassing clouds.3 mph88%29.89 "Hg10 mi
3:55 AM70 °FPassing clouds.3 mph88%29.89 "Hg10 mi
3:35 AM70 °FPassing clouds.3 mph88%29.89 "Hg10 mi
3:15 AM70 °FPassing clouds.No wind88%29.89 "Hg10 mi
2:55 AM70 °FPassing clouds.No wind88%29.89 "Hg10 mi
2:15 AM70 °FClear.3 mph88%29.89 "Hg10 mi
Weather by CustomWeather, © 2015

See weather overviewHow to use our weather pages